Change the Weather History Date:

Sunday, August 4, 2013

  Actual Average Record
Temperature  
Mean Temperature 84 °F -  
Max Temperature 90 °F 90 °F 97 °F (1970)
Min Temperature 78 °F 76 °F 71 °F (1975)
Cooling Degree Days 19    
Growing Degree Days 34 (Base 50)    
Moisture  
Dew Point 76 °F    
Average Humidity 77    
Maximum Humidity 90    
Minimum Humidity 61    
Precipitation  
Precipitation 0.23 in - - ()
Sea Level Pressure  
Sea Level Pressure 30.05 in    
Wind  
Wind Speed 6 mph (West)    
Max Wind Speed 21 mph    
Max Gust Speed 29 mph    
Visibility 9 miles    
Events Rain , Thunderstorm    
Averages and records for this station are not official NWS values.
T = Trace of Precipitation, MM = Missing Value Source: NWS Daily Summary

Daily Weather History Graph

Daily Weather History Graph

Search for Another Location

Airport or City:

Trip Planner

Search our weather history database for the weather conditions in past years. The results will help you decide how hot, cold, wet, or windy it might be!

Date:

Astronomy

Aug. 04, 2013 Rise Set
Actual Time 6:55 AM EDT 8:18 PM EDT
Civil Twilight 6:30 AM EDT 8:43 PM EDT
Nautical Twilight 6:00 AM EDT 9:12 PM EDT
Astronomical Twilight 5:28 AM EDT 9:44 PM EDT
Moon 4:57 AM EDT (8/4) 6:40 PM EDT (8/4)
Length of Visible Light 14h 12m
Length of Day
13h 22m
Waning Crescent, 5% of the Moon is Illuminated
Aug 4
Waning Crescent
Aug 6
New
Aug 14
First Quarter
Aug 20
Full
Aug 28
Last Quarter

Hourly Weather History & Observations

Time (EDT) Temp. Heat Index Dew Point Humidity Pressure Visibility Wind Dir Wind Speed Gust Speed Precip Events Conditions
12:53 AM 82.0 °F 88.6 °F 75.0 °F 79% 30.10 in 10.0 mi West 4.6 mph - N/A   Clear
1:53 AM 82.0 °F 88.6 °F 75.0 °F 79% 30.08 in 10.0 mi WSW 3.5 mph - N/A   Clear
2:53 AM 82.0 °F 89.4 °F 75.9 °F 82% 30.06 in 10.0 mi WSW 4.6 mph - N/A   Clear
3:53 AM 81.0 °F 87.3 °F 75.9 °F 85% 30.05 in 10.0 mi West 3.5 mph - N/A   Clear
4:53 AM 79.0 °F - 75.9 °F 90% 30.04 in 10.0 mi WSW 3.5 mph - N/A   Partly Cloudy
5:53 AM 79.0 °F - 75.9 °F 90% 30.05 in 10.0 mi SW 3.5 mph - N/A   Clear
6:53 AM 79.0 °F - 75.9 °F 90% 30.06 in 10.0 mi Calm Calm - N/A   Clear
7:53 AM 82.0 °F 90.2 °F 77.0 °F 85% 30.07 in 10.0 mi South 3.5 mph - N/A   Clear
8:53 AM 84.0 °F 92.6 °F 75.9 °F 76% 30.08 in 10.0 mi West 3.5 mph - 0.00 in   Clear
9:53 AM 84.9 °F 93.3 °F 75.0 °F 72% 30.09 in 9.0 mi WSW 9.2 mph - 0.01 in   Scattered Clouds
9:56 AM 84.2 °F 92.3 °F 75.2 °F 74% 30.09 in 1.2 mi WSW 8.1 mph 27.6 mph 0.07 in Rain Heavy Rain
10:04 AM 82.4 °F 89.5 °F 75.2 °F 79% 30.09 in 10.0 mi WNW 3.5 mph 21.9 mph 0.11 in   Mostly Cloudy
10:53 AM 88.0 °F 100.2 °F 77.0 °F 70% 30.09 in 10.0 mi West 5.8 mph - 0.11 in   Scattered Clouds
11:53 AM 87.1 °F 97.3 °F 75.9 °F 69% 30.09 in 9.0 mi WSW 12.7 mph 19.6 mph 0.00 in Rain Light Rain
12:53 PM 88.0 °F 97.5 °F 75.0 °F 65% 30.07 in 10.0 mi West 12.7 mph 18.4 mph 0.06 in Rain Light Rain
1:53 PM 88.0 °F 98.5 °F 75.9 °F 67% 30.06 in 10.0 mi West 10.4 mph - 0.00 in   Scattered Clouds
2:53 PM 90.0 °F 100.2 °F 75.0 °F 61% 30.03 in 10.0 mi WNW 12.7 mph - N/A   Clear
3:53 PM 89.1 °F 100.2 °F 75.9 °F 65% 30.02 in 10.0 mi WNW 10.4 mph - N/A   Scattered Clouds
4:53 PM 88.0 °F 97.5 °F 75.0 °F 65% 30.02 in 10.0 mi West 10.4 mph - N/A   Partly Cloudy
5:15 PM 82.4 °F 88.2 °F 73.4 °F 74% 30.02 in 10.0 mi NW 20.7 mph 28.8 mph N/A Thunderstorm Scattered Clouds
5:25 PM 78.8 °F - 73.4 °F 83% 30.02 in 2.5 mi NW 13.8 mph - 0.04 in Rain Heavy Rain
5:38 PM 82.4 °F 89.5 °F 75.2 °F 79% 30.02 in 10.0 mi NNW 6.9 mph - 0.05 in Rain Light Rain
5:53 PM 84.0 °F 94.8 °F 78.1 °F 82% 30.01 in 10.0 mi WNW 5.8 mph - 0.05 in   Mostly Cloudy
6:53 PM 84.9 °F 94.1 °F 75.9 °F 74% 30.01 in 10.0 mi WSW 8.1 mph - N/A   Clear
7:53 PM 84.9 °F 94.1 °F 75.9 °F 74% 30.02 in 10.0 mi West 6.9 mph - N/A   Clear
8:53 PM 84.0 °F 92.6 °F 75.9 °F 76% 30.03 in 10.0 mi West 5.8 mph - N/A   Scattered Clouds
9:53 PM 82.9 °F 90.2 °F 75.0 °F 77% 30.04 in 10.0 mi West 5.8 mph - N/A   Clear
10:53 PM 82.0 °F 88.6 °F 75.0 °F 79% 30.05 in 10.0 mi WSW 3.5 mph - N/A   Clear
11:53 PM 82.0 °F 89.4 °F 75.9 °F 82% 30.04 in 10.0 mi WSW 3.5 mph - N/A   Partly Cloudy